Location: Hurecourt
(47.9030°N, 6.0653°E)
Time: 10:52:53
(UTC+00:00)

Nadezhda 4 Rocket - Pass Details

Date: 14 July 2020
Orbit: 951 x 991 km, 82.9° (Epoch: 05 August)

Event Time Altitude Azimuth Distance (km) Brightness Sun altitude
Rises 03:04:37 0° 351° (N) 3,711 7.6 -7.0°
Reaches altitude 10° 03:07:09 10° 352° (N) 2,762 6.9 -6.6°
Maximum altitude 03:13:31 87° 81° (E) 1,000 4.2 -5.9°
Drops below altitude 10° 03:19:51 10° 172° (S) 2,745 6.1 -5.1°
Sets 03:22:21 0° 172° (S) 3,687 6.7 -4.7°
